Flag for France Weather past 2 weeks in Douai, France

Now
84 °F

Passing clouds.


Feels Like: 86 °F
Forecast: 63 / 82 °F
Wind: 10 mph from Northeast

Location: Lille Airport

Current Time: Jul 3, 2015 at 3:23:41 PM

Latest Report: Jul 3, 2015 at 3:00 PM


Visibility: N/A

Pressure: 30.18 "Hg

Humidity: 51%

Dew point: 64 °F

Location of DouaiLocation

Historic Weather in Douai — Graph

°F

Douai temperature yesterday

Maximum temperature yesterday: 81 °F (at 12:00 AM)
Minimum temperature yesterday: 66 °F (at 6:00 AM)
Average temperature yesterday: 74 °F

Past Weeks' High & Low Weather Summary

 TemperatureHumidityPressure
High95 °F (Jul 1, 3:30 PM)100% (Jun 21, 3:30 AM)30.27 "Hg (Jun 21, 3:30 AM)
Low46 °F (Jun 24, 5:30 AM)25% (Jul 1, 6:00 PM)29.74 "Hg (Jun 22, 5:30 PM)
Average65 °F66%30.09 "Hg
* Reported Jun 18 2:00 PM — Jul 3 2:00 PM, Douai, Weather by CustomWeather, © 2015

Note: Actual official high and low records may vary slightly from our data, if they occured in-between our weather recording intervals... More about our weather records

Advertising

Douai weather history for previous 24 hours

 ConditionsComfort  
Time TempWeatherWind HumidityBarometerVisibility
2:00 PM
Fri, Jul 3
82 °FPassing clouds.10 mph51%30.21 "HgN/A
1:30 PM82 °FPassing clouds.9 mph51%30.21 "HgN/A
1:00 PM81 °FPassing clouds.6 mph48%30.24 "HgN/A
12:30 PM79 °FPassing clouds.7 mph54%30.24 "HgN/A
12:00 PM79 °FPassing clouds.6 mph58%30.24 "HgN/A
11:30 AM77 °FPassing clouds.5 mph61%30.24 "HgN/A
11:00 AM75 °FPassing clouds.5 mph65%30.24 "HgN/A
10:30 AM73 °FPassing clouds.3 mph69%30.27 "HgN/A
10:00 AM72 °FPassing clouds.5 mph73%30.27 "HgN/A
9:30 AM70 °FPassing clouds.6 mph78%30.27 "HgN/A
9:00 AM68 °FPassing clouds.6 mph78%30.27 "HgN/A
8:30 AM66 °FPassing clouds.6 mph83%30.27 "HgN/A
8:00 AM66 °FScattered clouds.5 mph83%30.27 "HgN/A
7:30 AM64 °FPassing clouds.5 mph88%30.27 "HgN/A
7:00 AM63 °FPassing clouds.5 mph94%30.27 "HgN/A
6:00 AM63 °FPassing clouds.6 mph88%30.24 "HgN/A
5:30 AM63 °FClear.5 mph88%30.24 "Hg10 mi
5:00 AM63 °FClear.6 mph94%30.24 "Hg10 mi
4:30 AM63 °FClear.2 mph88%30.24 "Hg10 mi
4:00 AM63 °FClear.5 mph94%30.24 "Hg10 mi
3:30 AM63 °FClear.5 mph88%30.24 "Hg10 mi
3:00 AM63 °FClear.5 mph88%30.24 "Hg10 mi
2:30 AM64 °FClear.3 mph88%30.24 "Hg10 mi
2:00 AM64 °FClear.5 mph88%30.21 "Hg10 mi
1:30 AM64 °FClear.7 mph88%30.21 "Hg10 mi
1:00 AM66 °FClear.3 mph83%30.21 "Hg10 mi
12:30 AM66 °FClear.6 mph83%30.21 "Hg10 mi
12:00 AM68 °FClear.6 mph78%30.18 "Hg10 mi
11:30 PM
Thu, Jul 2
68 °FClear.5 mph78%30.18 "Hg10 mi
11:00 PM70 °FSunny.7 mph73%30.18 "Hg10 mi
10:30 PM72 °FSunny.8 mph69%30.18 "Hg10 mi
10:00 PM73 °FSunny.7 mph65%30.18 "Hg10 mi
9:30 PM75 °FSunny.9 mph61%30.15 "Hg10 mi
9:00 PM77 °FSunny.8 mph57%30.15 "Hg10 mi
8:30 PM77 °FSunny.6 mph54%30.15 "Hg10 mi
8:00 PM77 °FPassing clouds.7 mph51%30.12 "HgN/A
7:30 PM79 °FSunny.9 mph48%30.12 "Hg10 mi
7:00 PM77 °FSunny.10 mph47%30.12 "Hg10 mi
6:30 PM77 °FWarm.7 mph47%30.12 "HgN/A
6:00 PM79 °FWarm.7 mph45%30.12 "HgN/A
5:30 PM81 °FSunny.12 mph42%30.09 "Hg10 mi
5:00 PM81 °FPassing clouds.8 mph42%30.09 "HgN/A
4:30 PM81 °FPassing clouds.8 mph45%30.09 "HgN/A
4:00 PM79 °FPassing clouds.10 mph48%30.09 "HgN/A
3:30 PM77 °FPassing clouds.9 mph51%30.07 "HgN/A
3:00 PM75 °FPassing clouds.9 mph57%30.07 "HgN/A
Weather by CustomWeather, © 2015

See weather overviewHow to use our weather pages